Helicity
304 396 333 294 213 209 223 223 194 179 148 137 109 109 102 81 102 135 139 230 277 205 237 223 198 174 194 218 189 289 254 229
384 404 374 318 225 241 236 249 203 206 179 168 133 104 75 99 175 237 209 275 190 153 174 197 192 160 181 189 248 276 276 249
407 395 358 308 263 233 248 228 217 196 201 182 139 131 54 88 123 106 82 104 145 132 111 169 129 143 174 186 244 269 292 218
334 336 343 302 267 261 242 232 219 187 210 230 180 140 83 95 127 150 162 177 144 172 119 138 131 135 167 196 238 219 250 195
304 359 337 308 276 257 233 207 195 179 223 236 149 53 28 2 71 146 186 190 215 165 215 181 155 165 156 174 221 207 207 179
293 322 314 320 287 268 232 195 159 146 190 196 139 41 -29 -2 79 134 173 202 273 287 228 267 270 220 182 176 187 237 222 191
226 306 338 363 251 242 234 220 166 136 163 171 161 80 29 27 82 90 108 123 437 336 301 283 209 233 198 243 242 267 208 207
259 308 329 323 280 246 212 212 169 127 135 116 131 114 68 25 47 46 34 38 103 174 197 198 239 214 203 219 236 260 227 257
274 268 350 343 260 230 212 187 168 125 106 94 77 104 86 52 32 20 52 83 67 114 196 187 195 255 192 217 184 158 180 238
201 223 328 302 238 233 187 153 145 114 91 73 54 60 79 85 84 47 11 34 27 68 114 160 154 171 244 273 236 188 186 194
90 135 266 197 241 204 140 116 131 94 74 69 70 65 58 69 90 94 91 64 50 64 96 121 141 147 206 215 176 153 150 107
123 160 129 148 175 144 92 79 101 65 57 68 66 88 76 62 54 56 68 57 59 26 47 85 120 140 164 156 143 158 171 161
181 149 36 64 87 101 65 84 66 39 39 42 30 71 90 90 81 74 79 85 64 72 77 46 53 88 151 175 156 172 182 194
507 374 319 241 134 73 37 47 61 56 55 64 55 75 87 102 113 105 96 97 85 77 79 91 84 73 76 99 93 106 153 155
435 424 394 389 350 298 263 236 117 76 74 71 87 121 140 146 147 142 141 149 123 105 103 99 83 87 105 114 121 130 124 118
352 349 357 383 402 341 255 211 194 169 89 101 92 102 125 140 154 172 179 166 158 134 141 136 122 121 128 121 121 127 118 107
328 293 296 296 301 325 311 254 210 120 158 182 174 160 154 53 83 127 155 168 185 201 190 177 177 194 187 205 185 157 159 154
303 319 300 264 218 147 186 193 175 182 144 103 125 138 109 155 150 158 101 89 142 174 195 204 205 217 234 251 257 230 182 160
145 191 189 191 191 194 193 194 203 217 229 206 183 165 140 138 145 149 135 131 166 125 136 169 193 233 378 316 251 291 239 195
Wind_Speed
24 18 13 8 8 3 6 8 9 9 11 15 17 17 18 10 5 17 18 35 55 58 49 44 38 35 32 34 33 26 25 20
31 20 12 11 12 9 4 6 8 9 10 11 15 15 17 12 12 10 30 46 51 47 44 48 40 34 34 34 33 27 25 19
22 21 16 18 19 15 8 7 7 7 9 13 21 17 14 12 8 9 21 32 42 42 37 43 32 32 34 34 33 30 31 23
18 21 22 18 22 22 14 9 8 9 10 12 15 14 12 14 18 26 25 20 23 42 38 32 30 31 34 35 35 32 28 28
22 23 24 26 25 19 11 12 11 10 14 15 17 17 9 35 12 18 25 21 25 29 31 32 32 36 34 38 37 34 32 33
30 31 34 24 19 19 11 14 15 14 18 20 24 28 24 12 13 7 8 25 23 32 35 41 37 36 40 39 40 38 39 38
37 32 23 21 16 15 12 14 16 18 21 21 26 28 31 22 12 7 7 14 30 29 40 38 47 37 38 42 41 42 45 46
37 30 28 25 24 19 15 16 16 19 21 23 26 27 27 30 22 8 7 11 15 25 36 44 43 43 39 39 45 47 52 48
29 37 31 29 25 23 19 20 17 19 21 23 25 25 23 22 21 23 24 16 15 22 29 35 35 38 47 44 48 57 53 58
29 29 28 26 26 24 18 20 18 20 21 23 23 26 24 21 20 17 14 12 22 23 19 21 21 31 37 39 47 46 45 51
29 26 23 21 18 15 13 14 18 16 16 19 20 21 22 20 19 23 22 19 17 15 21 18 21 21 34 35 31 31 35 34
28 32 28 21 17 14 10 5 4 1 6 9 9 12 12 13 15 13 13 12 14 13 17 27 27 22 23 26 29 34 39 40
9 18 18 15 12 10 10 8 6 8 5 3 7 5 2 1 4 11 7 11 9 13 13 22 27 30 27 31 36 32 36 40
6 6 10 12 12 10 10 7 5 6 4 4 9 6 2 2 3 3 3 13 18 21 23 21 23 25 29 32 34 39 41 43
5 6 10 14 16 17 19 25 26 19 11 13 12 10 8 8 7 6 7 8 14 17 21 25 27 26 29 32 36 39 42 45
10 11 15 18 20 23 25 29 31 33 27 30 37 33 26 27 26 22 18 15 15 16 18 22 25 29 30 33 37 42 47 52
11 13 14 18 22 28 28 30 32 29 26 29 35 41 44 44 40 33 30 27 25 25 25 26 28 30 33 38 40 43 48 52
15 17 18 21 21 26 28 30 32 33 35 40 42 44 44 47 50 52 54 49 38 34 35 36 36 40 42 43 43 47 52 53
17 18 21 23 28 29 32 35 36 37 39 41 45 47 48 52 53 56 61 64 65 65 54 48 50 50 69 59 49 51 54 56
Wind_Direction
227 239 234 200 164 76 31 55 86 60 27 6 358 351 348 15 126 184 216 202 201 206 213 213 204 200 196 199 182 215 219 218
259 240 224 183 167 140 86 71 81 67 44 19 1 355 349 1 343 92 210 211 207 211 216 216 212 190 195 203 213 207 225 217
246 227 203 175 167 152 127 103 84 75 62 12 345 343 348 319 279 219 217 206 219 221 219 216 196 190 192 199 202 223 239 222
225 210 188 176 168 156 141 121 103 86 77 49 16 357 337 277 258 250 243 215 198 222 223 203 199 198 197 207 215 217 225 230
216 206 190 177 171 154 137 127 115 95 99 96 116 119 116 155 154 264 257 232 207 188 209 215 210 227 217 222 227 228 233 230
231 197 187 175 168 157 139 129 127 115 118 112 125 137 127 114 282 262 248 246 212 222 217 229 232 232 237 231 234 239 243 243
237 239 223 188 176 161 147 136 130 126 127 119 128 136 145 141 144 181 210 253 236 219 235 231 240 240 244 241 240 246 249 254
253 219 202 189 177 167 158 148 137 131 129 130 133 135 135 148 138 121 171 204 241 226 240 242 244 242 240 243 247 252 256 257
199 194 192 188 181 168 161 155 142 135 133 134 133 134 131 130 130 137 142 154 187 184 235 247 247 239 245 252 252 255 258 264
188 198 199 191 181 172 168 156 147 140 136 135 135 136 134 129 128 125 130 134 162 173 200 225 221 242 248 253 254 254 260 258
231 223 200 199 191 182 175 159 152 139 131 129 131 133 134 128 128 143 144 145 145 163 183 212 242 233 250 252 253 249 235 236
242 241 240 239 247 241 234 225 181 147 116 112 106 124 126 129 137 139 144 143 154 165 178 186 193 217 235 243 249 257 256 254
248 240 234 243 246 245 253 278 277 303 327 328 338 339 343 54 136 148 161 172 176 184 196 195 204 208 222 219 217 228 229 229
269 246 253 268 274 282 279 287 288 303 315 324 319 318 265 262 294 278 211 184 191 196 201 212 218 228 236 240 235 241 248 254
260 297 284 283 288 299 302 301 298 297 293 299 307 309 292 289 282 264 244 232 216 218 220 220 223 235 241 242 246 253 256 260
291 290 283 289 294 303 310 312 307 303 292 293 292 298 301 300 299 296 288 271 258 250 244 245 246 242 250 255 261 263 265 268
331 333 319 323 312 309 312 310 316 333 332 317 314 307 302 297 298 298 295 290 282 274 265 261 261 259 253 250 257 266 268 270
307 328 338 338 332 340 341 328 325 325 316 312 311 310 308 307 304 302 297 296 292 285 280 279 274 278 276 269 262 264 270 272
328 337 334 338 333 334 340 339 336 332 330 326 320 317 312 307 308 306 302 299 297 294 291 289 288 289 293 287 269 267 272 271